Location: Chiroubles
(46.1812°N, 4.6660°E)
Time: 22:15:16
(UTC+00:00)

Courier 1B - Pass Details

Date: 02 August 2021
Orbit: 963 x 1209 km, 28.3° (Epoch: 25 September)

Event Time Altitude Azimuth Distance (km) Brightness Sun altitude
Rises 19:39:30 0° 237° (WSW) 4,105 11.1 -5.3°
Reaches altitude 10° 19:43:16 10° 221° (SW) 3,133 10.3 -5.8°
Maximum altitude 19:48:31 20° 179° (S) 2,450 9.3 -6.6°
Drops below altitude 10° 19:53:40 10° 136° (SE) 3,064 9.4 -7.3°
Enters shadow 19:54:17 - 132° (SE) 3,202 9.5 -7.4°
